Location: Unspecified
(0.0000°N, 0.0000°E)
Time: 00:35:47
(UTC+00:00)

Tiros 8 - Pass Details

Date: 16 May 2026
Orbit: 640 x 662 km, 58.5° (Epoch: 10 June)

Event Time Altitude Azimuth Distance (km) Brightness Sun altitude
Rises 05:27:50 0° 5° (N) 2,937 12.4 -6.7°
Reaches altitude 10° 05:31:22 10° 33° (NNE) 2,027 12.1 -5.9°
Maximum altitude 05:33:29 13° 61° (ENE) 1,830 12.6 -5.4°
Drops below altitude 10° 05:35:37 10° 89° (E) 2,027 12.7 -4.9°
Sets 05:39:08 0° 116° (ESE) 2,936 12.8 -4.1°
